Hourly Data Report for October 24, 2019

TORONTO CITY
ONTARIO
Current Station Operator: ECCC - MSC

43°40'00.000" N
79°24'00.000" W
112.50 m
6158355
71508
XTO

Download Data

Hourly Data (October 2019)
Hourly Data Report for October 24, 2019
TIME
LST
Temp Definition
°C
Dew Point Definition
°C
Rel Hum Definition
%
Precip. Amount Definition
mm

Wind Dir Definition
10's deg

Wind Spd Definition
km/h
Visibility Definition
km
Stn Press Definition
kPa
Hmdx Definition


Wind Chill Definition


Weather Definition


00:00 10.2 3.3 62 0.0       100.37     LegendNANA
01:00 11.2 3.6 59 0.0       100.35     LegendNANA
02:00 11.6 5.3 65 0.0       100.32     LegendNANA
03:00 12.6 6.5 66 0.0       100.27     LegendNANA
04:00 12.5 6.1 65 0.0       100.26     LegendNANA
05:00 12.7 5.8 63 0.0       100.21     LegendNANA
06:00 12.7 5.8 63 0.0       100.26     LegendNANA
07:00 12.6 5.0 60 0.0       100.33     LegendNANA
08:00 12.3 6.1 66 0.0       100.40     LegendNANA
09:00 13.6 5.7 59 0.0       100.48     LegendNANA
10:00 14.4 3.6 48 0.0       100.57     LegendNANA
11:00 13.6 3.2 49 0.0       100.68     LegendNANA
12:00 13.3 3.3 51 0.0       100.74     LegendNANA
13:00 13.3 2.7 49 0.0       100.76     LegendNANA
14:00 13.5 1.9 45 0.0       100.78     LegendNANA
15:00 13.4 1.7 45 0.0       100.87     LegendNANA
16:00 13.3 1.2 44 0.0       100.92     LegendNANA
17:00 12.4 1.0 46 0.0       101.01     LegendNANA
18:00 11.2 0.9 49 0.0       101.08     LegendNANA
19:00 10.2 1.3 54 0.0       101.10     LegendNANA
20:00 9.6 0.8 54 0.0       101.18     LegendNANA
21:00 9.1 0.5 55 0.0       101.25     LegendNANA
22:00 7.7 0.5 60 0.0       101.30     LegendNANA
23:00 8.3 1.3 61 0.0       101.29     LegendNANA

Notes on Data Quality.

Legend

  • E = Estimated
  • M = Missing
  • NA = Not Available*
  • [empty] = Indicates an unobserved value
Date modified: